Location: Most
(50.5330°N, 13.6500°E)
Time: 13:21:55
(UTC+01:00)

N. Korean satellite - Pass Details

Date: 01 November 2021
Orbit: 446 x 495 km, 97.3° (Epoch: 06 December)

Event Time Altitude Azimuth Distance (km) Brightness Sun altitude
Rises 04:19:33 0° 29° (NNE) 2,585 10.8 -25.3°
Reaches altitude 10° 04:22:27 10° 55° (NE) 1,688 10.1 -24.8°
Maximum altitude 04:24:30 14° 89° (E) 1,423 9.9 -24.5°
Drops below altitude 10° 04:26:32 10° 124° (SE) 1,665 9.9 -24.2°
Sets 04:29:22 0° 150° (SSE) 2,526 10.5 -23.7°
